Time,TemperatureF,DewpointF,PressureIn,WindDirection,WindDirectionDegrees,WindSpeedMPH,WindSpeedGustMPH,Humidity,HourlyPrecipIn,Conditions,Clouds,dailyrainin,SolarRadiationWatts/m^2,SoftwareType,DateUTC
2013-05-31 00:21:00,51.0,20.0,30.11,NNW,347,4.0,7.0,29,-99.99,,,-99.99,0.000000,,2013-05-31 07:21:00,
2013-05-31 00:32:00,49.0,19.0,30.12,West,269,4.0,5.0,30,-99.99,,,-99.99,1.000000,,2013-05-31 07:32:00,
2013-05-31 00:41:00,49.0,19.0,30.12,West,269,4.0,5.0,30,-99.99,,,-99.99,1.000000,,2013-05-31 07:41:00,
2013-05-31 00:52:00,48.0,19.0,30.12,WNW,282,5.0,7.0,32,-99.99,,,-99.99,0.000000,,2013-05-31 07:52:00,
2013-05-31 01:01:00,48.0,19.0,30.12,WNW,282,5.0,7.0,32,-99.99,,,-99.99,0.000000,,2013-05-31 08:01:00,
2013-05-31 01:11:00,48.0,19.0,30.13,WSW,257,1.0,4.0,32,-99.99,,,-99.99,0.000000,,2013-05-31 08:11:00,
2013-05-31 01:21:00,48.0,19.0,30.13,WSW,257,1.0,4.0,32,-99.99,,,-99.99,0.000000,,2013-05-31 08:21:00,
2013-05-31 01:31:00,49.0,20.0,30.13,WNW,300,1.0,4.0,32,-99.99,,,-99.99,0.000000,,2013-05-31 08:31:00,
2013-05-31 01:42:00,49.0,20.0,30.13,WNW,300,1.0,4.0,32,-99.99,,,-99.99,0.000000,,2013-05-31 08:42:00,
2013-05-31 01:50:00,42.0,18.0,30.14,West,266,4.0,8.0,37,-99.99,,,-99.99,0.000000,,2013-05-31 08:50:00,
2013-05-31 01:51:00,50.0,20.0,30.13,NNW,336,4.0,7.0,31,-99.99,,,-99.99,0.000000,,2013-05-31 08:51:00,
2013-05-31 02:01:00,50.0,20.0,30.13,NNW,336,4.0,7.0,31,-99.99,,,-99.99,0.000000,,2013-05-31 09:01:00,
2013-05-31 02:11:00,45.0,19.0,30.13,West,280,7.0,9.0,35,-99.99,,,-99.99,0.000000,,2013-05-31 09:11:00,
2013-05-31 02:21:00,45.0,19.0,30.13,West,280,7.0,9.0,35,-99.99,,,-99.99,0.000000,,2013-05-31 09:21:00,
2013-05-31 02:32:00,42.0,18.0,30.14,West,266,4.0,8.0,37,-99.99,,,-99.99,0.000000,,2013-05-31 09:32:00,
2013-05-31 02:43:00,42.0,18.0,30.14,West,266,4.0,8.0,37,-99.99,,,-99.99,0.000000,,2013-05-31 09:43:00,
2013-05-31 03:22:00,38.0,20.0,30.15,SSE,158,6.0,8.0,48,-99.99,,,-99.99,0.000000,,2013-05-31 10:22:00,
2013-05-31 03:33:00,39.0,19.0,30.15,ESE,122,5.0,6.0,43,-99.99,,,-99.99,0.000000,,2013-05-31 10:33:00,
2013-05-31 03:42:00,39.0,19.0,30.15,ESE,122,5.0,6.0,43,-99.99,,,-99.99,0.000000,,2013-05-31 10:42:00,
2013-05-31 03:52:00,36.0,17.0,30.16,SE,143,7.0,9.0,46,-99.99,,,-99.99,1.000000,,2013-05-31 10:52:00,
2013-05-31 04:01:00,36.0,17.0,30.16,SE,143,7.0,9.0,46,-99.99,,,-99.99,1.000000,,2013-05-31 11:01:00,
2013-05-31 04:11:00,36.0,20.0,30.16,SSE,150,7.0,9.0,51,-99.99,,,-99.99,0.000000,,2013-05-31 11:11:00,
2013-05-31 04:22:00,36.0,20.0,30.16,SSE,150,7.0,10.0,51,-99.99,,,-99.99,0.000000,,2013-05-31 11:22:00,
2013-05-31 04:32:00,36.0,21.0,30.16,SE,143,9.0,11.0,54,-99.99,,,-99.99,0.000000,,2013-05-31 11:32:00,
2013-05-31 04:42:00,36.0,21.0,30.16,SE,143,9.0,11.0,54,-99.99,,,-99.99,0.000000,,2013-05-31 11:42:00,
2013-05-31 04:52:00,36.0,21.0,30.17,SE,135,7.0,11.0,55,-99.99,,,-99.99,0.000000,,2013-05-31 11:52:00,
2013-05-31 05:01:00,36.0,21.0,30.17,SE,135,7.0,11.0,55,-99.99,,,-99.99,0.000000,,2013-05-31 12:01:00,
2013-05-31 05:11:00,35.0,21.0,30.17,SE,135,8.0,11.0,55,-99.99,,,-99.99,0.000000,,2013-05-31 12:11:00,
2013-05-31 05:21:00,36.0,20.0,30.17,SSE,150,3.0,9.0,53,-99.99,,,-99.99,0.000000,,2013-05-31 12:21:00,
2013-05-31 05:31:00,37.0,20.0,30.18,SSE,156,2.0,3.0,51,-99.99,,,-99.99,0.000000,,2013-05-31 12:31:00,
2013-05-31 05:41:00,37.0,20.0,30.18,SSE,156,2.0,3.0,51,-99.99,,,-99.99,0.000000,,2013-05-31 12:41:00,
2013-05-31 05:52:00,34.0,20.0,30.19,SE,143,4.0,5.0,56,-99.99,,,-99.99,6.000000,,2013-05-31 12:52:00,
2013-05-31 06:01:00,34.0,20.0,30.19,SE,143,4.0,5.0,56,-99.99,,,-99.99,6.000000,,2013-05-31 13:01:00,
2013-05-31 06:11:00,32.0,19.0,30.20,SE,140,7.0,8.0,60,-99.99,,,-99.99,7.000000,,2013-05-31 13:11:00,
2013-05-31 06:21:00,32.0,20.0,30.21,SSE,148,5.0,7.0,61,-99.99,,,-99.99,18.000000,,2013-05-31 13:21:00,
2013-05-31 06:32:00,32.0,20.0,30.21,SSE,151,5.0,9.0,61,-99.99,,,-99.99,20.000000,,2013-05-31 13:32:00,
2013-05-31 06:42:00,32.0,20.0,30.21,SSE,151,5.0,9.0,61,-99.99,,,-99.99,20.000000,,2013-05-31 13:42:00,
2013-05-31 06:52:00,38.0,22.0,30.23,SSE,149,2.0,5.0,52,-99.99,,,-99.99,165.000000,,2013-05-31 13:52:00,
2013-05-31 07:02:00,38.0,22.0,30.23,SSE,149,2.0,5.0,52,-99.99,,,-99.99,165.000000,,2013-05-31 14:02:00,
2013-05-31 07:11:00,40.0,23.0,30.23,SSE,152,1.0,3.0,49,-99.99,,,-99.99,198.000000,,2013-05-31 14:11:00,
2013-05-31 07:21:00,40.0,23.0,30.23,SSE,152,1.0,3.0,49,-99.99,,,-99.99,198.000000,,2013-05-31 14:21:00,
2013-05-31 07:31:00,44.0,27.0,30.24,NNW,338,10.0,15.0,51,-99.99,,,-99.99,299.000000,,2013-05-31 14:31:00,
2013-05-31 07:41:00,44.0,27.0,30.24,NNW,338,10.0,15.0,51,-99.99,,,-99.99,299.000000,,2013-05-31 14:41:00,
2013-05-31 07:52:00,46.0,28.0,30.25,NNW,336,14.0,17.0,50,-99.99,,,-99.99,372.000000,,2013-05-31 14:52:00,
2013-05-31 08:01:00,46.0,28.0,30.25,NNW,336,14.0,17.0,50,-99.99,,,-99.99,372.000000,,2013-05-31 15:01:00,
2013-05-31 08:11:00,46.0,28.0,30.25,NNW,336,14.0,17.0,50,-99.99,,,-99.99,372.000000,,2013-05-31 15:11:00,
2013-05-31 08:21:00,47.0,28.0,30.25,NNW,330,13.0,17.0,48,-99.99,,,-99.99,408.000000,,2013-05-31 15:21:00,
2013-05-31 08:33:00,49.0,28.0,30.25,NNW,340,11.0,16.0,44,-99.99,,,-99.99,518.000000,,2013-05-31 15:33:00,
2013-05-31 08:43:00,49.0,28.0,30.25,NNW,340,11.0,16.0,44,-99.99,,,-99.99,518.000000,,2013-05-31 15:43:00,
2013-05-31 08:53:00,50.0,29.0,30.25,NNW,347,11.0,15.0,44,-99.99,,,-99.99,553.000000,,2013-05-31 15:53:00,
2013-05-31 09:03:00,50.0,29.0,30.25,NNW,347,11.0,15.0,44,-99.99,,,-99.99,553.000000,,2013-05-31 16:03:00,
2013-05-31 09:12:00,53.0,29.0,30.25,NNW,342,17.0,23.0,40,-99.99,,,-99.99,657.000000,,2013-05-31 16:12:00,
2013-05-31 09:22:00,53.0,29.0,30.25,NNW,342,17.0,23.0,40,-99.99,,,-99.99,657.000000,,2013-05-31 16:22:00,
2013-05-31 09:33:00,53.0,29.0,30.25,NNW,339,19.0,24.0,39,-99.99,,,-99.99,689.000000,,2013-05-31 16:33:00,
2013-05-31 09:42:00,53.0,29.0,30.25,NNW,339,19.0,24.0,39,-99.99,,,-99.99,689.000000,,2013-05-31 16:42:00,
2013-05-31 09:52:00,55.0,28.0,30.26,NNW,338,16.0,21.0,35,-99.99,,,-99.99,785.000000,,2013-05-31 16:52:00,
2013-05-31 10:02:00,55.0,28.0,30.26,NNW,338,16.0,21.0,35,-99.99,,,-99.99,785.000000,,2013-05-31 17:02:00,
2013-05-31 10:12:00,55.0,28.0,30.26,NNW,338,16.0,21.0,35,-99.99,,,-99.99,785.000000,,2013-05-31 17:12:00,
2013-05-31 10:22:00,56.0,28.0,30.26,NNW,342,15.0,22.0,34,-99.99,,,-99.99,814.000000,,2013-05-31 17:22:00,
2013-05-31 10:32:00,56.0,27.0,30.26,NNW,345,14.0,20.0,33,-99.99,,,-99.99,843.000000,,2013-05-31 17:32:00,
2013-05-31 10:42:00,57.0,27.0,30.26,NNW,347,13.0,19.0,32,-99.99,,,-99.99,872.000000,,2013-05-31 17:42:00,
2013-05-31 10:52:00,57.0,27.0,30.26,North,349,12.0,18.0,31,-99.99,,,-99.99,898.000000,,2013-05-31 17:52:00,
2013-05-31 11:01:00,58.0,26.0,30.26,NNW,340,12.0,17.0,29,-99.99,,,-99.99,924.000000,,2013-05-31 18:01:00,
2013-05-31 11:11:00,59.0,25.0,30.26,NNW,345,11.0,19.0,27,-99.99,,,-99.99,948.000000,,2013-05-31 18:11:00,
2013-05-31 11:22:00,59.0,23.0,30.26,NNW,340,11.0,18.0,24,-99.99,,,-99.99,971.000000,,2013-05-31 18:22:00,
2013-05-31 11:31:00,60.0,21.0,30.26,NNW,345,12.0,18.0,22,-99.99,,,-99.99,990.000000,,2013-05-31 18:31:00,
2013-05-31 11:41:00,60.0,19.0,30.26,North,350,12.0,18.0,20,-99.99,,,-99.99,1005.000000,,2013-05-31 18:41:00,
2013-05-31 11:52:00,60.0,20.0,30.26,NNW,346,11.0,17.0,21,-99.99,,,-99.99,1021.000000,,2013-05-31 18:52:00,
2013-05-31 12:01:00,61.0,20.0,30.26,NNW,342,11.0,18.0,21,-99.99,,,-99.99,1037.000000,,2013-05-31 19:01:00,
2013-05-31 12:11:00,61.0,20.0,30.26,NNW,344,10.0,17.0,20,-99.99,,,-99.99,1049.000000,,2013-05-31 19:11:00,
2013-05-31 12:22:00,62.0,21.0,30.26,NW,316,10.0,18.0,21,-99.99,,,-99.99,1062.000000,,2013-05-31 19:22:00,
2013-05-31 12:31:00,62.0,19.0,30.26,NNW,348,11.0,18.0,19,-99.99,,,-99.99,1074.000000,,2013-05-31 19:31:00,
2013-05-31 12:42:00,63.0,19.0,30.25,NNW,348,11.0,19.0,18,-99.99,,,-99.99,1080.000000,,2013-05-31 19:42:00,
2013-05-31 12:52:00,63.0,18.0,30.25,North,356,12.0,22.0,17,-99.99,,,-99.99,1097.000000,,2013-05-31 19:52:00,
2013-05-31 13:01:00,63.0,18.0,30.25,North,356,12.0,22.0,17,-99.99,,,-99.99,1097.000000,,2013-05-31 20:01:00,
2013-05-31 13:11:00,64.0,15.0,30.25,North,352,12.0,18.0,15,-99.99,,,-99.99,1102.000000,,2013-05-31 20:11:00,
2013-05-31 13:22:00,64.0,20.0,30.24,NNW,335,11.0,18.0,18,-99.99,,,-99.99,1103.000000,,2013-05-31 20:22:00,
2013-05-31 13:30:00,66.0,20.0,30.23,NNW,329,9.0,15.0,17,-99.99,,,-99.99,1079.000000,,2013-05-31 20:30:00,
2013-05-31 13:31:00,65.0,19.0,30.24,NNW,338,9.0,21.0,17,-99.99,,,-99.99,1103.000000,,2013-05-31 20:31:00,
2013-05-31 13:41:00,65.0,19.0,30.24,NNW,329,9.0,18.0,17,-99.99,,,-99.99,1103.000000,,2013-05-31 20:41:00,
2013-05-31 13:51:00,65.0,19.0,30.24,NNW,340,10.0,19.0,17,-99.99,,,-99.99,1099.000000,,2013-05-31 20:51:00,
2013-05-31 14:01:00,66.0,18.0,30.24,NNE,25,7.0,19.0,16,-99.99,,,-99.99,1091.000000,,2013-05-31 21:01:00,
2013-05-31 14:11:00,67.0,19.0,30.24,NNW,335,11.0,19.0,16,-99.99,,,-99.99,1090.000000,,2013-05-31 21:11:00,
2013-05-31 14:22:00,66.0,20.0,30.23,NNW,329,9.0,15.0,17,-99.99,,,-99.99,1079.000000,,2013-05-31 21:22:00,
2013-05-31 15:02:00,68.0,19.0,30.23,North,3,10.0,16.0,15,-99.99,,,-99.99,1032.000000,,2013-05-31 22:02:00,
2013-05-31 15:12:00,68.0,18.0,30.23,NNE,16,8.0,14.0,15,-99.99,,,-99.99,1017.000000,,2013-05-31 22:12:00,
2013-05-31 15:22:00,68.0,19.0,30.23,NNW,341,8.0,16.0,15,-99.99,,,-99.99,,,2013-05-31 22:22:00,
2013-05-31 15:33:00,68.0,17.0,30.23,North,354,5.0,11.0,14,-99.99,,,-99.99,980.000000,,2013-05-31 22:33:00,
2013-05-31 15:42:00,69.0,18.0,30.23,NNE,23,10.0,16.0,14,-99.99,,,-99.99,959.000000,,2013-05-31 22:42:00,
2013-05-31 15:52:00,69.0,18.0,30.22,North,9,8.0,16.0,14,-99.99,,,-99.99,937.000000,,2013-05-31 22:52:00,
2013-05-31 16:02:00,70.0,17.0,30.22,ENE,59,3.0,8.0,13,-99.99,,,-99.99,917.000000,,2013-05-31 23:02:00,
2013-05-31 16:12:00,70.0,17.0,30.22,NNW,339,11.0,17.0,13,-99.99,,,-99.99,892.000000,,2013-05-31 23:12:00,
2013-05-31 16:21:00,70.0,17.0,30.21,North,2,7.0,15.0,13,-99.99,,,-99.99,867.000000,,2013-05-31 23:21:00,
2013-05-31 16:30:00,71.0,16.0,30.21,NNW,341,9.0,19.0,12,-99.99,,,-99.99,692.000000,,2013-05-31 23:30:00,
2013-05-31 16:32:00,71.0,16.0,30.21,NNE,26,4.0,9.0,12,-99.99,,,-99.99,785.000000,,2013-05-31 23:32:00,
2013-05-31 16:42:00,71.0,16.0,30.21,NNE,26,4.0,9.0,12,-99.99,,,-99.99,785.000000,,2013-05-31 23:42:00,
2013-05-31 16:52:00,71.0,16.0,30.21,NNE,26,4.0,9.0,12,-99.99,,,-99.99,785.000000,,2013-05-31 23:52:00,
2013-05-31 17:01:00,70.0,15.0,30.20,North,3,8.0,15.0,12,-99.99,,,-99.99,724.000000,,2013-06-01 00:01:00,
2013-05-31 17:11:00,71.0,16.0,30.21,NNW,341,9.0,19.0,12,-99.99,,,-99.99,692.000000,,2013-06-01 00:11:00,
2013-05-31 17:22:00,71.0,16.0,30.21,NNW,341,9.0,19.0,12,-99.99,,,-99.99,692.000000,,2013-06-01 00:22:00,
2013-05-31 18:21:00,71.0,14.0,30.20,North,354,13.0,18.0,11,-99.99,,,-99.99,449.000000,,2013-06-01 01:21:00,
2013-05-31 18:32:00,71.0,14.0,30.20,North,349,11.0,19.0,11,-99.99,,,-99.99,34.000000,,2013-06-01 01:32:00,
2013-05-31 18:42:00,71.0,14.0,30.20,North,349,11.0,19.0,11,-99.99,,,-99.99,34.000000,,2013-06-01 01:42:00,
2013-05-31 18:52:00,71.0,14.0,30.20,North,355,11.0,18.0,11,-99.99,,,-99.99,34.000000,,2013-06-01 01:52:00,
2013-05-31 19:01:00,71.0,14.0,30.20,North,355,11.0,18.0,11,-99.99,,,-99.99,34.000000,,2013-06-01 02:01:00,
2013-05-31 19:11:00,71.0,14.0,30.20,NNW,342,10.0,16.0,11,-99.99,,,-99.99,34.000000,,2013-06-01 02:11:00,
2013-05-31 19:21:00,71.0,14.0,30.20,NNW,342,10.0,16.0,11,-99.99,,,-99.99,34.000000,,2013-06-01 02:21:00,
2013-05-31 19:32:00,70.0,15.0,30.20,NNW,344,11.0,14.0,12,-99.99,,,-99.99,20.000000,,2013-06-01 02:32:00,
2013-05-31 19:42:00,70.0,15.0,30.20,NNW,344,11.0,14.0,12,-99.99,,,-99.99,20.000000,,2013-06-01 02:42:00,
2013-05-31 19:51:00,70.0,15.0,30.20,NNW,342,10.0,14.0,12,-99.99,,,-99.99,20.000000,,2013-06-01 02:51:00,
2013-05-31 20:01:00,70.0,15.0,30.20,NNW,342,10.0,14.0,12,-99.99,,,-99.99,20.000000,,2013-06-01 03:01:00,
2013-05-31 20:11:00,69.0,14.0,30.20,NNW,344,9.0,12.0,12,-99.99,,,-99.99,20.000000,,2013-06-01 03:11:00,
2013-05-31 20:21:00,69.0,14.0,30.20,NNW,344,9.0,12.0,12,-99.99,,,-99.99,20.000000,,2013-06-01 03:21:00,
2013-05-31 20:33:00,66.0,16.0,30.21,NNW,333,9.0,11.0,14,-99.99,,,-99.99,7.000000,,2013-06-01 03:33:00,
2013-05-31 20:43:00,66.0,16.0,30.21,NNW,333,9.0,11.0,14,-99.99,,,-99.99,7.000000,,2013-06-01 03:43:00,
2013-05-31 20:50:00,59.0,18.0,30.23,NNW,344,5.0,8.0,20,-99.99,,,-99.99,0.000000,,2013-06-01 03:50:00,
2013-05-31 20:53:00,64.0,15.0,30.21,NNW,332,11.0,14.0,15,-99.99,,,-99.99,7.000000,,2013-06-01 03:53:00,
2013-05-31 21:02:00,64.0,15.0,30.21,NNW,332,11.0,14.0,15,-99.99,,,-99.99,7.000000,,2013-06-01 04:02:00,
2013-05-31 21:12:00,60.0,17.0,30.22,North,2,8.0,10.0,18,-99.99,,,-99.99,0.000000,,2013-06-01 04:12:00,
2013-05-31 21:23:00,59.0,18.0,30.22,NNW,348,7.0,10.0,20,-99.99,,,-99.99,0.000000,,2013-06-01 04:23:00,
2013-05-31 21:33:00,59.0,18.0,30.23,NNW,344,5.0,8.0,20,-99.99,,,-99.99,0.000000,,2013-06-01 04:33:00,
2013-05-31 21:42:00,59.0,18.0,30.23,NNW,344,5.0,8.0,20,-99.99,,,-99.99,0.000000,,2013-06-01 04:42:00,
2013-05-31 22:10:00,57.0,17.0,30.26,NW,308,5.0,6.0,21,-99.99,,,-99.99,0.000000,,2013-06-01 05:10:00,
2013-05-31 22:22:00,58.0,17.0,30.25,NW,318,3.0,5.0,20,-99.99,,,-99.99,0.000000,,2013-06-01 05:22:00,
2013-05-31 22:32:00,59.0,18.0,30.26,NNW,338,3.0,5.0,20,-99.99,,,-99.99,0.000000,,2013-06-01 05:32:00,
2013-05-31 22:42:00,59.0,18.0,30.26,NNW,338,3.0,5.0,20,-99.99,,,-99.99,0.000000,,2013-06-01 05:42:00,
2013-05-31 22:52:00,57.0,17.0,30.26,NW,308,5.0,6.0,21,-99.99,,,-99.99,0.000000,,2013-06-01 05:52:00,
2013-05-31 23:01:00,57.0,17.0,30.26,NW,308,5.0,6.0,21,-99.99,,,-99.99,0.000000,,2013-06-01 06:01:00,
2013-05-31 23:10:00,54.0,15.0,30.27,NW,315,6.0,8.0,21,-99.99,,,-99.99,0.000000,,2013-06-01 06:10:00,
2013-05-31 23:20:00,54.0,16.0,30.28,NW,312,6.0,10.0,22,-99.99,,,-99.99,0.000000,,2013-06-01 06:20:00,
2013-05-31 23:22:00,57.0,17.0,30.26,NNW,327,3.0,5.0,21,-99.99,,,-99.99,0.000000,,2013-06-01 06:22:00,
2013-05-31 23:32:00,51.0,16.0,30.27,SE,136,1.0,4.0,24,-99.99,,,-99.99,0.000000,,2013-06-01 06:32:00,
2013-05-31 23:42:00,51.0,16.0,30.27,SE,136,1.0,4.0,24,-99.99,,,-99.99,0.000000,,2013-06-01 06:42:00,
2013-05-31 23:52:00,54.0,15.0,30.27,NW,315,6.0,8.0,21,-99.99,,,-99.99,0.000000,,2013-06-01 06:52:00,